Left ArrowRight Arrow

Hourly Observations for May 25, 2024

Temp ( °F °C ) Dew Point ( °F °C ) Humidity (%) Winds ( mph kmh ) Pressure ( in mb ) Visibility ( mi km ) Precip ( " mm )
12:53 am 00:53 Mostly Clear 43 6.1 42 5.6 97 97 NNW 3 6 29.69 1005 10 16 0.00 0.00
1:42 am 01:42 Cloudy with Mist and Fog 40 4.4 39 3.9 97 97 S 5 7 29.71 1006 1 1 0.00 0.00
1:55 am 01:55 Clear with Mist and Fog 40 4.4 40 4.4 100 100 SW 3 6 29.72 1007 4 6 0.00 0.00
2:53 am 02:53 Partly Cloudy with Mist and Fog 40 4.4 39 3.9 97 97 Calm 29.68 1005 4 6 0.00 0.00
3:07 am 03:07 Partly Cloudy 39 3.9 38 3.3 96 96 S 3 6 29.73 1007 7 11 0.00 0.00
3:53 am 03:53 Clear 39 3.9 38 3.3 96 96 SSE 3 6 29.69 1005 10 16 0.00 0.00
4:29 am 04:29 Cloudy with Mist and Fog 38 3.3 37 2.8 97 97 Calm 29.73 1007 1 1 0.00 0.00
4:38 am 04:38 Mostly Clear with Mist and Fog 37 2.8 36 2.2 96 96 Calm 29.74 1007 4 6 0.00 0.00
4:53 am 04:53 Mostly Clear 38 3.3 37 2.8 97 97 Calm 29.68 1005 10 16 0.00 0.00
5:18 am 05:18 Cloudy with Fog 37 2.8 36 2.2 96 96 NE 3 6 29.74 1007 0 0 0.00 0.00
5:42 am 05:42 Cloudy with Fog 37 2.8 37 2.8 100 100 N 3 6 29.74 1007 1 1 0.00 0.00
5:53 am 05:53 Cloudy with Fog 37 2.8 36 2.2 96 96 Calm 29.69 1005 0 0 0.00 0.00
6:14 am 06:14 Cloudy with Fog 37 2.8 36 2.2 96 96 Calm 29.74 1007 0 0 0.00 0.00
6:39 am 06:39 Cloudy with Fog 39 3.9 38 3.3 96 96 Calm 29.73 1007 0 0 0.00 0.00
6:53 am 06:53 Cloudy with Fog 40 4.4 39 3.9 97 97 Calm 29.68 1005 0 0 0.00 0.00
7:18 am 07:18 Mostly Cloudy with Mist and Fog 42 5.6 42 5.6 100 100 Calm 29.71 1006 4 6 0.00 0.00
7:28 am 07:28 Partly Cloudy 44 6.7 42 5.6 93 93 Calm 29.70 1006 10 16 0.00 0.00
7:53 am 07:53 Sunny 45 7.2 44 6.7 97 97 Calm 29.70 1006 10 16 0.00 0.00
8:53 am 08:53 Sunny 51 10.6 45 7.2 79 79 VRB 3 6 29.69 1005 10 16 0.00 0.00
9:53 am 09:53 Sunny 55 12.8 45 7.2 69 69 Calm 29.67 1005 10 16 0.00 0.00
10:53 am 10:53 Sunny 59 15 44 6.7 58 58 Calm 29.66 1004 10 16 0.00 0.00
11:53 am 11:53 Sunny 61 16.1 43 6.1 51 51 W 5 7 29.65 1004 10 16 0.00 0.00
12:53 pm 12:53 Partly Cloudy 63 17.2 43 6.1 48 48 VRB 3 6 29.64 1004 10 16 0.00 0.00
1:53 pm 13:53 Cloudy 61 16.1 46 7.8 58 58 NE 5 7 29.64 1004 10 16 0.02 0.51
2:53 pm 14:53 Partly Cloudy 65 18.3 40 4.4 40 40 NE 3 6 29.62 1003 10 16 0.00 0.00
3:53 pm 15:53 Mostly Cloudy 64 17.8 46 7.8 52 52 S 15 24 29.62 1003 10 16 0.00 0.00
4:53 pm 16:53 Partly Cloudy 63 17.2 41 5 44 44 VRB 6 9 29.62 1003 10 16 0.00 0.00
5:53 pm 17:53 Partly Cloudy 64 17.8 42 5.6 45 45 SW 6 9 29.62 1003 10 16 0.01 0.13
6:53 pm 18:53 Partly Cloudy 66 18.9 41 5 40 40 SW 8 13 29.61 1003 10 16 0.00 0.00
7:53 pm 19:53 Partly Cloudy 60 15.6 41 5 49 49 SSW 9 15 29.62 1003 10 16 0.00 0.00
8:17 pm 20:17 Cloudy with Nearby Thunderstorms 59 15 40 4.4 49 49 WSW 12 19 29.58 1002 10 16 0.00 0.00
8:32 pm 20:32 Cloudy 59 15 42 5.6 53 53 NW 8 13 29.59 1002 10 16 0.00 0.00
8:53 pm 20:53 Mostly Cloudy 57 13.9 42 5.6 57 57 WNW 6 9 29.64 1004 10 16 0.00 0.00
9:53 pm 21:53 Mostly Cloudy 53 11.7 42 5.6 66 66 SSW 9 15 29.66 1004 10 16 0.00 0.00
10:53 pm 22:53 Clear 50 10 42 5.6 74 74 SSW 10 17 29.67 1005 10 16 0.00 0.00
11:53 pm 23:53 Clear 50 10 41 5 71 71 SW 10 17 29.67 1005 10 16 0.00 0.00

Powered by Vaisala Xweather